TV
NORAD ID: 36032
Int'l Code: 2009-058A
Perigee: 35,783.3 km
Apogee: 35,803.2 km
Inclination: 0.0°
Period: 1,436.1 min
Semi major axis: 42,164.3 km
Launch date: October 29, 2009
Source: Netherlands (NETH)
Comments: NSS 12 was manufactured by Space Systems/Loral and has a 15-year design life the 12,400-pound (5,625-kg). The satellite carries 48 Ku-band and 40 C-band transponders. It will be parked in geostationary orbit over the equator at 57 degrees East longitude to take the place of the aging NSS 703 satellite, which was launched aboard an Atlas 2AS rocket from Cape Canaveral in 1994.
Two Line Element Set (TLE):
1 36032U 09058A 10243.74419524 .00000070 00000-0 10000-3 0 1715
2 36032 000.0235 240.4339 0002358 279.7672 144.5294 01.00273402 3101
More details about NSS 12